Regional Weather Roundup
Issued by NWS Upton, NY

Current Version | Previous Version | Text Only | Print | Product List | Glossary On
Versions: 1 2 3 4 5 6 7 8 9 10 11 12 13 14 15 16 17 18 19 20 21 22 23 24 25 26 27
000
ASUS41 KOKX 152308
RWROKX

REGIONAL WEATHER ROUNDUP
NATIONAL WEATHER SERVICE NEW YORK NY
600 PM EST FRI DEC 15 2017

NOTE: "FAIR" INDICATES FEW OR NO CLOUDS BELOW 12,000 FEET WITH NO
SIGNIFICANT WEATHER AND/OR OBSTRUCTIONS TO VISIBILITY.

NYZ071-072-176-178-NJZ106-104-160000-
NEW YORK CITY METRO AREA

CITY           SKY/WX    TMP DP  RH WIND       PRES   REMARKS
Central Park   LGT SNOW  24  20  84 NW5       29.93F VSB 1   WCI  18
Bronx Bot Gard   N/A     25  23  93 W6        29.92S WCI  18
Bronx Lehman C   N/A     25  23  93 NW3         N/A
LaGuardia APRT LGT SNOW  25  22  88 VRB5      29.92F VSB 3/4 WCI  19
Queens College   N/A     27  25  93 W5          N/A  WCI  21
Kennedy INTL   LGT SNOW  25  23  92 W9        29.94F VSB 3/4 WCI  15
Breezy Point     N/A    N/A N/A N/A NW6         N/A
Brooklyn Coll    N/A     27  25  93 W5          N/A  WCI  21
Staten Island    N/A     25  23  93 W1          N/A
Newark/Liberty LGT SNOW  24  21  88 W6        29.93F VSB 3/4 WCI  17
Teterboro      LGT SNOW  23  20  88 NW3       29.92F VSB 1
$$

NYZ177-179-078>081-160000-
LONG ISLAND NEW YORK

CITY           SKY/WX    TMP DP  RH WIND       PRES   REMARKS
Jones Beach      N/A    N/A N/A N/A NW7         N/A
Wantagh          N/A     27  25  93 W5          N/A  WCI  21
Matinecock PT    N/A    N/A N/A N/A W7          N/A
Farmingdale    LGT SNOW  25  23  92 W6        29.92F VSB 1   WCI  18
MacArthur/ISP  LGT SNOW  27  25  92 W5        29.91R VSB 3/4 WCI  22
Shirley        LGT SNOW  27  26  96 NW3       29.91S FOG
Mt Sinai Harb    N/A    N/A N/A N/A SW2         N/A
Westhampton    LGT SNOW  26  23  88 NW5       29.91S VSB 3/4 WCI  20
East Hampton   LGT SNOW  28  26  95 CALM      29.89S
Southold         N/A     28  27  93 CALM        N/A
Montauk          N/A     31  28  89 CALM      29.91R
$$

NYZ052-065-067-160000-
HUDSON VALLEY

CITY           SKY/WX    TMP DP  RH WIND       PRES   REMARKS
White Plains   LGT SNOW  22  20  92 W5        29.88F VSB 1   WCI  16
Larchmont Harb   N/A    N/A N/A N/A W6          N/A
Croton On Huds   N/A    N/A N/A N/A S1          N/A
Somers           N/A     21  19  93 W2          N/A
Brewster         N/A     21  19  93 W1          N/A
Newburgh       LGT SNOW  19  19 100 CALM      29.89S
Montgomery     LGT SNOW  21  18  88 S3        29.88F FOG
Otisville        N/A     21  18  86 S2          N/A
Warwick          N/A     21  19  93 CALM        N/A
Suffern          N/A     21  19  93 SW1         N/A
Poughkeepsie   LGT SNOW  22  17  81 CALM      29.90S
Albany         CLOUDY    21  10  62 S5        29.87F WCI  15
$$

NJZ001-105-106-008-010-013-015-019>022-104-160000-
NEW JERSEY

CITY           SKY/WX    TMP DP  RH WIND       PRES   REMARKS
Newark/Liberty LGT SNOW  24  21  88 W6        29.93F VSB 3/4 WCI  17
Teterboro      LGT SNOW  23  20  88 NW3       29.92F VSB 1
Caldwell       LGT SNOW  22  20  92 CALM      29.93S FOG
Somerville     LGT SNOW  22  21  96 CALM      29.91F FOG
Linden         LGT SNOW  23  20  88 CALM      29.93F
Perth Amboy      N/A    N/A N/A N/A SW3         N/A
Sussex         LGT SNOW  21  19  92 CALM      29.88F FOG
Andover        NOT AVBL
Trenton        LGT SNOW  23  20  88 N3        29.92S FOG
Millville      LGT SNOW  24  24 100 N6        29.92F VSB 1   WCI  17
Atlantic City  LGT SNOW  24  23  96 N9        29.93R VSB 3/4 WCI  14
Wrightstown    LGT SNOW  23  21  92 CALM      29.90S FOG
Toms River     LGT SNOW  23  21  93 N5        29.93F FOG     WCI  17
Belmar         LGT SNOW  22  20  92 NW6       29.93F FOG     WCI  14
$$

PAZ047>061-062-071-160000-
EASTERN PENNSYLVANIA

CITY           SKY/WX    TMP DP  RH WIND       PRES   REMARKS
Philadelphia   LGT SNOW  25  22  88 CALM      29.94S FOG
Allentown      LGT SNOW  23  18  81 SW3       29.90S
Scranton       CLOUDY    20  18  92 SW5       29.84S WCI  13
$$

CTZ002-004>006-009-010-012-RIZ004-006-007-MAZ004-011-015-160000-
SOUTHERN NEW ENGLAND
 IN CT

CITY           SKY/WX    TMP DP  RH WIND       PRES   REMARKS
Bradley INTL   CLOUDY    23  12  62 CALM      29.89S
Hartford       FLURRIES  25  14  63 CALM      29.91R
Danbury        LGT SNOW  23  19  85 SW5       29.89S FOG     WCI  17
Wtrbury/Oxford LGT SNOW  22  17  81 CALM      29.87R FOG
Norwalk Harbor   N/A    N/A N/A N/A NW7         N/A
Bridgeport     LGT SNOW  26  22  84 CALM      29.91S FOG
Meriden        LGT SNOW  22  17  81 CALM      29.91R
New Haven      LGT SNOW  25  21  85 N5        29.91R FOG     WCI  19
Chester        LGT SNOW  23  19  86 CALM      29.88R
Groton         LGT SNOW  24  20  84 N5        29.91R FOG     WCI  18
Wilimantic     CLOUDY    24  14  65 CALM      29.89S

 IN RI

CITY           SKY/WX    TMP DP  RH WIND       PRES   REMARKS
Providence     CLOUDY    25  17  72 CALM      29.90F
Block Island   LGT SNOW  30  27  88 CALM      29.90R VSB 1
Westerly       LGT SNOW  25  21  85 N3        29.91R FOG
 IN MA

CITY           SKY/WX    TMP DP  RH WIND       PRES   REMARKS
Boston         CLOUDY    26  11  52 CALM      29.88F
Worcester      CLOUDY    20   9  62 CALM      29.80F
Westfield      CLOUDY    23  12  62 CALM      29.87F
Provincetown   MOCLDY    26  19  74 MISG        N/A
Nantucket      LGT SNOW  30  27  88 E5        29.89S FOG     WCI  25
$$

ANZ330-335-338-340-345-350-353-355-160000-
COASTAL MARINE OBSERVATIONS


STATION/POSITION TIME  SKY/WX   TEMP    WIND        PRES    VSBY  WAVE
                                AIR SEA DIR/SP/G                  HT/PER
                 (UTC)          (F)     (DEG/KT/KT) (MB)    (MI)  (FT/S)
NY HARB ENTRANCE 2250            28 50  290/ 12/ 14 1012.9          1/10
20 S FIRE ISLAND 2250            31 51  290/  8/ 12 1012.7          2/ 8
GREAT SOUTH BAY  NOT AVBL
HUDSON CANYON    2250            37 56   10/ 12/ 16 1010.7          2/ 9
KINGS POINT      2230            25 42  350/  5/  7 1014.2
EXECUTION ROCKS  2230            26     280/  6/ 10   N/A
WESTERN LI SOUND NOT AVBL
CENTRAL LI SOUND 2215            28      50/ 10/ 14   N/A           1
ROBBINS REEF     2230            23     270/  8/  9 1014.2
$$


>>>>>>>>>>>>>>>>>>>>>>>>>>>> KEY <<<<<<<<<<<<<<<<<<<<<<<<<<<
>                                                          <
>     SKY/WX - Sky Condition/Present Weather               <
>     TMP    - Temperature in Fahrenheit                   <
>     DP     - Dew Point in Fahrenheit                     <
>     RH     - Relative Humidity in Percent                <
>     WIND   - Direction (from) and Speed in MPH           <
>     PRES   - Mean Sea Level Pressure (inches of Hg)      <
>     WCI    - Wind Chill Index                            <
>     VSB    - VISIBILITY IN MILES                         <
>     HX     - HEAT INDEX                                  <
>     TC     - TEMPERATURE IN CELSIUS                      <
>     VRB    - VARIABLE WIND DIRECTION                     <
>                                                          <
>>>>>>>>>>>>>>>>>>>>>>>>>>>> KEY <<<<<<<<<<<<<<<<<<<<<<<<<<<




USA.gov is the U.S. government's official web portal to all federal, state and local government web resources and services.